カタログに戻る

STARLINK-1560

運用中通信VLEO
NORAD 46036·PAYLOAD·🇺🇸 United States

打ち上げ Aug 7, 2020 から Cape Canaveral Space Force Station

Loading…

次のパス (今後24時間)

TLE

最新Source: CelesTrak SupGP

元期: Sep 15, 2026, 02:03 UTC

1 46036C 20055K   26258.08590278  .00051066  00000+0  16418-2 0  2580
2 46036  53.1590 326.1017 0001100  83.9288 349.8240 15.31683630    11

AllMySatでSTARLINK-1560をリアルタイム追跡

Download on the App Store